VIZARD-METEO (RS38S)

Last updated on Tue Jan 14 2025 00:03:00 GMT+0000 (Coordinated Universal Time)

1 57189U 23091Z 25013.56810542 .00012685 00000+0 62056-3 0 9990 2 57189 97.5849 72.4178 0012048 99.7397 260.5198 15.18278165 85392
UTC large
Height (km)
Speed (km/s)
/
Latitude / Longitude
Inclination (degrees)
Orbital Period (minutes)
Azimuth
Elevation
Range (km)
Doppler Factor

Next 0 passes for location: London (51.5072 / 0.1276)

Sorry there are no passes over London.